Location: Unspecified
(0.0000°N, 0.0000°E)
Time: 09:06:34
(UTC+00:00)

NANOACE - Visible Passes

Search period start: 16 September 2024 00:00
Search period end: 26 September 2024 00:00
Orbit: 546 x 557 km, 97.4° (Epoch: 15 September)

Date Brightness Start Highest point End Pass type
(mag) Time Alt. Az. Time Alt. Az. Time Alt. Az.
22 Sep ? 05:25:54 10° SSE 05:29:36 40° E 05:33:18 10° N visible
23 Sep ? 05:21:52 10° SE 05:25:29 35° E 05:29:04 10° NNE visible
24 Sep ? 05:17:50 10° SE 05:21:19 30° E 05:24:46 10° NNE visible
25 Sep ? 05:13:48 10° SE 05:17:07 26° E 05:20:25 10° NNE visible
25 Sep ? 18:48:41 10° WNW 18:49:25 10° WNW 18:50:09 10° W visible
